This is the latest recevied weather packets stored in our database for station/object M0JUI-1. If no packets are shown the sender has not sent any weather packets the latest 10 day(s).
| Time | Temp. | Humidity | Pressure | Rain* | Wind** | Luminosity | Snow |
|---|---|---|---|---|---|---|---|
| 1788256725 | 17.78° C | 1% | 1019.6 hPa | 0 mm | - | 609 W/m² | - |
| 1788256425 | 17.78° C | 2% | 1019.6 hPa | 0 mm | - | 565 W/m² | - |
| 1788256125 | 17.78° C | 2% | 1019.5 hPa | 0 mm | - | 511 W/m² | - |
| 1788255813 | 17.78° C | 2% | 1019.6 hPa | 0 mm | - | 491 W/m² | - |
| 1788255513 | 17.78° C | 2% | 1019.6 hPa | 0 mm | - | 484 W/m² | - |
| 1788255221 | 17.22° C | 3% | 1019.7 hPa | 0 mm | - | 472 W/m² | - |
| 1788254901 | 17.22° C | 3% | 1019.8 hPa | 0 mm | - | 450 W/m² | - |
| 1788254601 | 17.22° C | 3% | 1019.8 hPa | 0 mm | - | 442 W/m² | - |
| 1788254301 | 17.22° C | 3% | 1019.7 hPa | 0 mm | - | 387 W/m² | - |
| 1788253989 | 17.22° C | 3% | 1019.8 hPa | 0 mm | - | 319 W/m² | - |
| 1788253689 | 16.67° C | 4% | 1019.9 hPa | 0 mm | - | 349 W/m² | - |
| 1788253390 | 16.67° C | 4% | 1019.9 hPa | 0 mm | - | 397 W/m² | - |
| 1788253077 | 16.67° C | 4% | 1019.9 hPa | 0 mm | - | 358 W/m² | - |
| 1788252777 | 16.67° C | 3% | 1019.8 hPa | 0 mm | - | 265 W/m² | - |
| 1788252477 | 16.11° C | 2% | 1019.6 hPa | 0 mm | - | 331 W/m² | - |
| 1788252178 | 16.11° C | 2% | 1019.7 hPa | 0 mm | - | 365 W/m² | - |
| 1788251878 | 16.11° C | 2% | 1019.9 hPa | 0 mm | - | 317 W/m² | - |
| 1788251577 | 15.56° C | 2% | 1019.8 hPa | 0 mm | - | 220 W/m² | - |
| 1788251278 | 15.56° C | 2% | 1019.8 hPa | 0 mm | - | 313 W/m² | - |
| 1788250965 | 15.56° C | 2% | 1019.9 hPa | 0 mm | - | 260 W/m² | - |
| 1788250665 | 15.56° C | 2% | 1019.7 hPa | 0 mm | - | 273 W/m² | - |
| 1788250365 | 15.56° C | 1% | 1019.8 hPa | 0 mm | - | 242 W/m² | - |
| 1788250055 | 15.56° C | 1% | 1019.8 hPa | 0 mm | - | 239 W/m² | - |
| 1788249753 | 14.44° C | 1% | 1020 hPa | 0 mm | - | 244 W/m² | - |
| 1788249453 | 14.44° C | 1% | 1020 hPa | 0 mm | - | 194 W/m² | - |
* Rain latest hour (hover to see other rain measurements)
** Current wind speed in m/s (hover to see current wind gust speed)